Regional Weather Roundup
Issued by NWS

Home | Current Version | Previous Version | Text Only | Print | Product List | Glossary Off
Versions: 1 2 3 4 5 6 7 8 9 10 11 12 13 14 15 16 17 18 19 20 21 22 23 24 25 26 27 28 29 30 31 32 33 34 35 36 37 38 39 40 41 42 43 44 45 46 47 48 49 50

000
ASUS43 KMPX 171210
RWRMN
WEATHER ROUNDUP FOR MINNESOTA
NATIONAL WEATHER SERVICE TWIN CITIES/CHANHASSEN MN
700 AM CDT WED SEP 17 2014


NOTE: "FAIR" INDICATES FEW OR NO CLOUDS BELOW 12,000 FEET WITH NO
SIGNIFICANT WEATHER AND/OR OBSTRUCTIONS TO VISIBILITY. N/A MEANS
CURRENT SKY AND/OR WEATHER CONDITIONS ARE NOT AVAILABLE.

MNZ060>063-068>070-171300-
   Twin Cities Metro

CITY           SKY/WX    TMP DP  RH WIND       PRES   REMARKS
TWIN CITIES    CLOUDY    57  48  72 VRB6      29.95S
6HR MIN TEMP:  55; 6HR MAX TEMP:  58;

ST PAUL        CLOUDY    54  50  86 SE6       29.96S
CRYSTAL        CLOUDY    57  48  72 S6        29.93F
BLAINE         MOCLDY    55  52  88 S5        29.94S
LAKEVILLE      MOCLDY    50  48  93 CALM      29.96R
EDEN PRAIRIE   CLOUDY    56  49  77 S3        29.94S
6HR MIN TEMP:  56; 6HR MAX TEMP:  58;

SOUTH ST PAUL  CLOUDY    55  49  80 CALM      29.95S
LAKE ELMO      CLOUDY    54  50  87 S5        29.97R
$$
MNZ001>005-007-008-013>017-022>024-027-028-171300-
   Northwest Minnesota

CITY           SKY/WX    TMP DP  RH WIND       PRES   REMARKS
BEMIDJI        PTCLDY    39  37  93 CALM      29.93R
HALLOCK        PTCLDY    46  43  87 N8        29.94R
ROSEAU         MOCLDY    46  41  81 N6        29.94R
WARROAD        CLOUDY    52  46  82 N10       29.95R
THIEF RVR FALL PTCLDY    43  41  93 CALM      29.93R
CROOKSTON      PTCLDY    43  41  93 E3        29.93S
FOSSTON        CLEAR     39  37  93 CALM      29.94R
DETROIT LAKES  CLEAR     46  45  93 NE3       29.93S
MOORHEAD       CLEAR     46  46 100 CALM      29.92R
PARK RAPIDS    PTCLDY    42  39  89 CALM      29.93R
MAHNOMEN       FAIR      42  41  94 E3        29.92R
$$
MNZ006-009>011-018-025>026-171300-
   North Central Minnesota

CITY           SKY/WX    TMP DP  RH WIND       PRES   REMARKS
BAUDETTE       CLOUDY    50  47  89 NE7       29.92R
FLAG ISLAND    CLOUDY    46  45  93 NE13      29.95R
INTL FALLS     CLOUDY    50  46  86 N6        29.92R
6HR MIN TEMP:  47; 6HR MAX TEMP:  53;

WASKISH        PTCLDY    41  39  93 CALM      29.93R
BIG FORK       CLEAR     41  39  93 CALM      29.94S
LONGVILLE      PTCLDY    39  37  93 CALM      29.92S
GRAND RAPIDS   PTCLDY    43  39  87 CALM      29.92S
CRANE LAKE     LGT RAIN  46  46 100 CALM      29.92S
ORR            PTCLDY    46  43  87 CALM      29.90S
COOK           PTCLDY    45  43  93 CALM      29.93F
WALKER         FAIR      45  43  91 CALM      29.92R
$$
MNZ012-019>021-037-171300-
   Northeast Minnesota

CITY           SKY/WX    TMP DP  RH WIND       PRES   REMARKS
DULUTH         PTCLDY    48  41  76 W10       29.92S
6HR MIN TEMP:  46; 6HR MAX TEMP:  50;

ELY            MOCLDY    48  45  87 SW6       29.92F
HIBBING        PTCLDY    35  33  92 CALM      29.92S
EVELETH        PTCLDY    37  36  93 CALM      29.93S
DULUTH HARBOR  PTCLDY    48  45  87 S6        29.93R
TWO HARBORS    PTCLDY    39  36  87 W3        29.90S
SILVER BAY     PTCLDY    43  43 100 CALM      29.90S
GRAND MARAIS     N/A     48  44  86 CALM      29.93R
G MARAIS ARPRT CLOUDY    45  39  81 CALM      29.92S
$$
MNZ029>031-032-039>041-046>048-054>057-064-171300-
   West Central Minnesota

CITY           SKY/WX    TMP DP  RH WIND       PRES   REMARKS
FERGUS FALLS   CLEAR     50  45  81 S3        29.92S
WHEATON        CLEAR     39  39 100 SE3       29.93S
MORRIS         CLEAR     46  45  93 E6        29.91R
ALEXANDRIA     CLEAR     47  46  97 CALM      29.93S
ELBOW LAKE     FAIR      49  47  92 SE3       29.92R
WADENA         CLEAR     41  39  93 CALM      29.92S
GLENWOOD       CLEAR     48  46  93 CALM      29.93R
APPLETON       CLEAR     46  45  93 CALM      29.91S FOG
BENSON         CLEAR     46  46 100 CALM      29.92S
ORTONVILLE     CLEAR     48  46  93 CALM      29.91R
MADISON        CLEAR     48  46  93 NE3       29.91S
WILLMAR        FAIR      52  48  87 SE3       29.94S
$$
MNZ033>034-036-042>043-049>051-058-059-171300-
   Central Minnesota

CITY           SKY/WX    TMP DP  RH WIND       PRES   REMARKS
ST CLOUD       CLEAR     47  44  90 CALM      29.93S
6HR MIN TEMP:  47; 6HR MAX TEMP:  56;

SAUK CENTRE    FAIR      44  44  99 CALM      29.93R
PAYNESVILLE    CLEAR     47  46  97 CALM      29.93S
AITKIN         HAZE      41  36  81 CALM      29.91S VSB 1/2
PINE RIVER     CLEAR     37  37 100 CALM      29.96S
BRAINERD       FOG       42  42 100 CALM      29.94R VSB 3/4
STAPLES        CLEAR     41  41 100 CALM      29.93R
LONG PRAIRIE   FAIR      43  43 100 CALM      29.93S
LITTLE FALLS     N/A     43  41  93 CALM      29.93R FOG
LITCHFIELD     PTCLDY    54  52  94 CALM      29.94S
BUFFALO        MOCLDY    55  48  77 S3        29.94F
MAPLE LAKE     PTCLDY    54  51  90 CALM      29.94S
$$
MNZ037-044-045-052-053-171300-
   East Central Minnesota

CITY           SKY/WX    TMP DP  RH WIND       PRES   REMARKS
PRINCETON        N/A     46  46 100 CALM      29.94R VSB 3/4
MORA           CLEAR     39  37  93 CALM      29.96R
CAMBRIDGE      MOCLDY    48  43  81 CALM      29.92S
RUSH CITY      PTCLDY    44  43  95 CALM      29.94S
MOOSE LAKE     PTCLDY    37  36  93 CALM      29.92S FOG
HINCKLEY       FAIR      39  39 100 CALM      29.95R
CLOQUET        MOCLDY    46  41  81 W3        29.92S
MCGREGOR       PTCLDY    41  39  93 CALM      29.93S
$$
MNZ071>073-080-081-089-090-097-098-171300-
   Southwest Minnesota

CITY           SKY/WX    TMP DP  RH WIND       PRES   REMARKS
MONTEVIDEO     CLEAR     48  46  93 CALM      29.93R
GRANITE FALLS  CLEAR     49  47  92 CALM      29.93S
CANBY          CLEAR     55  50  83 SW7       29.91S
MARSHALL       CLEAR     52  46  82 CALM      29.90S
REDWOOD FALLS  CLEAR     51  50  96 SE3       29.92S
OLIVIA         CLEAR     52  48  87 CALM      29.92S
PIPESTONE      CLEAR     48  46  93 CALM      29.92S
WINDOM         CLEAR     52  48  87 CALM      29.94S
WORTHINGTON    CLEAR     48  46  93 SW6       29.94S
JACKSON        CLEAR     50  46  87 S5        29.95S
TRACY          CLEAR     54  50  87 SW10      29.92S
SLAYTON        CLEAR     47  46  97 CALM      29.94S
$$
MNZ065>067-074>077-082>085-091>093-171300-
   South Central Minnesota

CITY           SKY/WX    TMP DP  RH WIND       PRES   REMARKS
MANKATO        MOCLDY    52  45  76 S6        29.95S
NEW ULM        CLEAR     52  50  93 SE3       29.94R
ST JAMES       MOCLDY    55  50  82 S5        29.95S
FAIRMONT       CLOUDY    52  45  76 S5        29.95S
GLENCOE        CLOUDY    55  48  76 CALM      29.94S
FARIBAULT      MOCLDY    54  46  76 S3        29.96S
OWATONNA       MOCLDY    52  46  82 S6        29.96S
WASECA         MOCLDY    48  43  81 CALM      29.97F
ALBERT LEA     CLOUDY    54  48  82 S5        29.97S
$$
MNZ078>079-086>088-094>096-171300-
   Southeast Minnesota

CITY           SKY/WX    TMP DP  RH WIND       PRES   REMARKS
ROCHESTER      CLOUDY    50  47  89 S5        29.99R
6HR MIN TEMP:  47; 6HR MAX TEMP:  50;

RED WING       CLOUDY    52  48  87 CALM      29.96S
STANTON        CLOUDY    54  47  77 CALM      29.95S
DODGE CENTER   CLOUDY    52  48  87 S5        29.98R
WINONA         CLOUDY    50  50 100 S3        30.00R
AUSTIN         CLOUDY    48  46  93 SE3       29.98S
PRESTON        CLOUDY    48  48  99 CALM      30.01R
$$
ABBREVIATIONS USED IN REMARKS
   TC - TEMPERATURES IN CELSIUS
  WCI - WIND CHILL INDEX
   HX - HEAT INDEX
  VSB - VISIBILITY
$$


USA.gov is the U.S. government's official web portal to all federal, state and local government web resources and services.